Location: Newark
(12.4436°N, 0.6167°W)
Time: 22:03:40
(UTC+00:00)

SR - Visible Passes

Search period start: 08 December 2019 00:00
Search period end: 18 December 2019 00:00
Orbit: 573 x 882 km, 66.7° (Epoch: 07 December)

Date Brightness Start Highest point End Pass type
(mag) Time Alt. Az. Time Alt. Az. Time Alt. Az.
10 Dec ? 18:50:17 10° N 18:53:03 23° NNE 18:53:03 23° NNE visible
11 Dec ? 18:03:09 10° NE 18:05:07 12° ENE 18:07:02 10° E visible
11 Dec ? 19:42:05 10° NW 19:47:21 49° WSW 19:52:12 10° S visible
12 Dec ? 18:52:20 10° NNW 18:57:48 65° ENE 19:02:48 10° SSE visible
13 Dec ? 18:03:30 10° N 18:08:03 26° ENE 18:12:19 10° ESE visible
13 Dec ? 19:45:53 10° WNW 19:49:50 21° WSW 19:53:34 10° SSW visible
14 Dec ? 18:55:08 10° NNW 19:00:26 53° WSW 19:05:17 10° S visible
15 Dec ? 18:05:27 10° NNW 18:10:51 60° ENE 18:15:48 10° SSE visible
16 Dec ? 18:58:48 10° NW 19:02:55 23° WSW 19:06:47 10° SSW visible
17 Dec ? 05:49:08 10° SSE 05:52:53 21° ESE 05:56:50 10° ENE visible
17 Dec ? 18:08:10 10° NNW 18:13:30 58° WSW 18:18:22 10° S visible
